EW9532 Weather Reports


Display with metric or nautical units.
time (UTC)temp
F
wind
direction
speed
MPH
gust
MPH
rain 1hr
in
rain 24hr
in
rain mn
in
humidity
%
barometer
mb
20260502170430 66 178 0.0 4.0 0.00 0.01 0.00 73 1022.5
20260502163903 65 248 0.0 3.0 0.00 0.01 0.00 75 1022.6
20260502163402 65 248 0.0 4.0 0.00 0.01 0.00 76 1022.8
20260502163105 64 0 0.0 5.0 0.00 0.01 0.00 76 1022.9
20260502162902 64 61 1.0 4.0 0.00 0.01 0.00 75 1022.7
20260502162402 64 57 0.0 3.0 0.00 0.01 0.00 75 1022.6
20260502162124 64 288 0.0 2.0 0.00 0.01 0.00 77 1022.4
20260502161849 63 160 0.0 3.0 0.00 0.01 0.00 77 1022.4
20260502161613 63 0 0.0 3.0 0.00 0.01 0.00 77 1022.8
20260502160902 63 53 0.0 3.0 0.00 0.01 0.00 76 1022.5
20260502160853 64 298 0.0 2.0 0.00 0.01 0.00 76 1022.6
20260502151901 62 58 0.0 2.0 0.00 0.01 0.00 78 1022.2
20260502151621 62 184 0.0 3.0 0.00 0.01 0.00 78 1022.2
20260502151557 61 0 0.0 2.0 0.00 0.01 0.00 77 1022.5
20260502150900 62 325 0.0 3.0 0.00 0.01 0.00 77 1022.3
20260502150401 62 119 0.0 2.0 0.00 0.01 0.00 77 1022.2
20260502130620 61 83 0.0 0.0 0.00 0.01 0.00 85 1020.3
20260502123401 61 264 0.0 0.0 0.00 0.01 0.00 85 1019.9
20260502123112 61 0 0.0 0.0 0.00 0.01 0.00 85 1020.2
20260502122901 62 189 0.0 0.0 0.00 0.01 0.00 85 1019.8
20260502122400 62 189 0.0 0.0 0.00 0.01 0.00 84 1019.7
20260502121901 62 189 0.0 0.0 0.00 0.01 0.00 84 1019.6
20260502121625 62 189 0.0 0.0 0.00 0.01 0.00 83 1019.6
20260502121556 61 0 0.0 0.0 0.00 0.01 0.00 82 1019.9
20260502120902 62 189 0.0 0.0 0.00 0.01 0.00 83 1019.4
20260502120401 62 189 0.0 0.0 0.00 0.01 0.00 83 1019.4
20260502115901 62 189 0.0 0.0 0.00 0.01 0.00 83 1019.4
20260502115616 62 189 0.0 0.0 0.00 0.01 0.00 83 1019.2
20260502114902 62 189 0.0 0.0 0.00 0.01 0.00 83 1019.3
20260502114613 62 189 0.0 0.0 0.00 0.01 0.00 83 1019.1
20260502114554 61 0 0.0 0.0 0.00 0.01 0.00 82 1019.4
20260502113855 62 189 0.0 0.0 0.00 0.01 0.00 83 1018.9
20260502113348 62 189 0.0 4.0 0.00 0.01 0.00 83 1018.9
20260502113052 61 0 0.0 4.0 0.00 0.01 0.00 82 1018.9
20260502112841 62 189 0.0 4.0 0.00 0.01 0.00 82 1018.6
20260502112340 62 357 0.0 0.0 0.00 0.01 0.00 82 1018.5
20260502111840 62 357 0.0 0.0 0.00 0.01 0.00 82 1018.6
20260502111551 61 0 0.0 0.0 0.00 0.01 0.00 82 1018.7
20260502111331 62 357 0.0 1.0 0.00 0.01 0.00 82 1018.5
20260502110830 62 29 0.0 3.0 0.00 0.01 0.00 82 1018.4
20260502110330 62 178 0.0 3.0 0.00 0.01 0.00 82 1018.3
20260502110051 62 0 0.0 4.0 0.00 0.01 0.00 82 1018.5
20260502105831 62 87 0.0 4.0 0.00 0.01 0.00 82 1018.1
20260502105330 62 303 0.0 4.0 0.00 0.01 0.00 82 1018.2
20260502104830 62 31 0.0 4.0 0.00 0.01 0.00 82 1018.2
20260502104550 62 0 0.0 3.0 0.00 0.01 0.00 82 1018.3
20260502104330 62 207 0.0 0.0 0.00 0.01 0.00 82 1018.0
20260502104100 62 207 0.0 0.0 0.00 0.01 0.00 82 1018.1
20260502103556 62 207 0.0 1.0 0.00 0.01 0.00 82 1018.1
20260502103048 62 0 0.0 1.0 0.00 0.01 0.00 81 1018.3
20260502102831 62 207 0.0 1.0 0.00 0.01 0.00 82 1018.0
20260502102556 62 202 0.0 1.0 0.00 0.01 0.00 82 1018.1
20260502101831 62 202 0.0 1.0 0.00 0.01 0.00 82 1018.0
20260502101556 62 0 0.0 1.0 0.00 0.01 0.00 82 1018.1
20260502101329 62 187 0.0 2.0 0.00 0.01 0.00 82 1017.8
20260502100830 62 256 0.0 2.0 0.00 0.01 0.00 82 1017.8
20260502100329 62 30 0.0 1.0 0.00 0.01 0.00 82 1017.7
20260502100110 62 117 0.0 2.0 0.00 0.01 0.00 82 1017.6
20260502091329 63 350 0.0 1.0 0.00 0.01 0.00 83 1017.4
20260502090831 63 150 0.0 4.0 0.00 0.01 0.00 83 1017.4
20260502090330 63 244 0.0 4.0 0.00 0.01 0.00 83 1017.3
20260502080108 63 321 0.0 3.0 0.00 0.01 0.00 82 1017.5
20260502070831 64 219 1.0 8.0 0.00 0.01 0.00 82 1016.2
20260502070330 65 304 2.0 8.0 0.00 0.01 0.00 82 1016.1
20260502070107 64 233 1.0 7.0 0.00 0.01 0.00 82 1016.4
20260502065831 65 80 1.0 7.0 0.00 0.01 0.00 82 1016.1
20260502065330 65 259 0.0 7.0 0.00 0.01 0.00 82 1016.2
20260502064830 65 216 0.0 6.0 0.00 0.01 0.00 82 1016.1
20260502064551 64 0 1.0 8.0 0.00 0.01 0.00 81 1016.4
20260502064328 65 117 1.0 6.0 0.00 0.01 0.00 82 1016.2
20260502063829 65 234 0.0 5.0 0.00 0.01 0.00 82 1016.1
20260502063330 65 226 0.0 6.0 0.00 0.01 0.00 82 1016.3
20260502063045 65 0 1.0 7.0 0.00 0.01 0.00 81 1016.5
20260502062829 65 217 1.0 6.0 0.00 0.01 0.00 82 1016.2
20260502062329 65 44 1.0 5.0 0.00 0.01 0.00 82 1016.2
20260502061829 65 182 0.0 4.0 0.00 0.01 0.00 82 1016.1
20260502061550 65 0 0.0 6.0 0.00 0.01 0.00 81 1016.4
20260502061320 66 332 0.0 5.0 0.00 0.01 0.00 82 1016.2
20260502061036 66 26 0.0 10.0 0.00 0.01 0.00 82 1016.4
20260502060314 66 110 1.0 10.0 0.00 0.01 0.00 82 1016.2
20260502060052 66 0 0.0 6.0 0.00 0.01 0.00 81 1016.4
20260502055810 66 46 1.0 6.0 0.00 0.01 0.00 82 1016.0
20260502055306 66 168 0.0 3.0 0.00 0.01 0.00 82 1016.2
20260502054804 66 343 0.0 4.0 0.00 0.01 0.00 81 1016.2
20260502054551 66 0 0.0 8.0 0.00 0.01 0.00 81 1016.3
20260502054303 66 42 1.0 5.0 0.00 0.01 0.00 81 1016.0
20260502053803 66 249 0.0 6.0 0.00 0.01 0.00 81 1015.9
20260502053315 66 208 2.0 6.0 0.00 0.01 0.00 81 1015.8
20260502053056 66 350 1.0 7.0 0.00 0.01 0.00 81 1016.2
20260502052802 67 330 1.0 6.0 0.00 0.01 0.00 81 1016.0
20260502052530 67 259 1.0 6.0 0.00 0.01 0.00 81 1015.8
20260502051803 67 82 1.0 9.0 0.00 0.01 0.00 81 1015.8
20260502051600 67 8 0.0 8.0 0.00 0.01 0.00 81 1016.1
20260502051302 67 105 1.0 9.0 0.00 0.01 0.00 82 1016.0
20260502050801 67 172 0.0 4.0 0.00 0.01 0.00 82 1015.9
20260502050303 67 293 0.0 4.0 0.00 0.01 0.00 81 1015.8
20260502050046 67 172 0.0 7.0 0.00 0.01 0.00 81 1016.1
20260502045803 68 1 0.0 4.0 0.00 0.01 0.01 81 1015.9
20260502045305 68 281 0.0 5.0 0.00 0.01 0.01 81 1015.9
20260502044802 68 264 1.0 7.0 0.00 0.01 0.01 81 1015.8
20260502044552 67 0 0.0 7.0 0.00 0.01 0.01 81 1016.0
20260502044301 68 107 1.0 7.0 0.00 0.01 0.01 81 1015.6
20260502043800 68 205 0.0 6.0 0.00 0.01 0.01 81 1015.6
20260502043302 68 30 1.0 8.0 0.00 0.01 0.01 81 1015.6
20260502043048 67 346 0.0 8.0 0.00 0.01 0.01 81 1015.6
20260502042801 68 35 1.0 8.0 0.00 0.01 0.01 81 1015.4
20260502042300 68 47 0.0 5.0 0.00 0.01 0.01 82 1015.4
20260502041801 68 105 0.0 5.0 0.00 0.01 0.01 82 1015.3
20260502041549 68 0 0.0 5.0 0.00 0.01 0.01 82 1015.5
20260502041300 68 286 0.0 3.0 0.00 0.01 0.01 82 1015.2
20260502040800 68 301 0.0 4.0 0.00 0.01 0.01 82 1015.4
20260502040303 68 121 1.0 5.0 0.00 0.01 0.01 82 1015.2
20260502040049 68 0 0.0 7.0 0.00 0.01 0.01 82 1015.3
20260502035803 68 216 1.0 8.0 0.00 0.01 0.01 82 1014.9
20260502035523 68 262 1.0 8.0 0.00 0.01 0.01 82 1015.0
20260502034802 68 204 1.0 5.0 0.00 0.01 0.01 82 1014.9
20260502034550 68 125 0.0 6.0 0.00 0.01 0.01 81 1015.0
20260502034519 68 69 0.0 6.0 0.00 0.01 0.01 82 1014.8
20260502034018 69 161 1.0 6.0 0.00 0.01 0.01 82 1014.7
20260502033747 69 224 0.0 6.0 0.00 0.01 0.01 81 1014.9
20260502033050 68 0 0.0 7.0 0.00 0.01 0.01 81 1015.0
20260502032801 69 114 0.0 7.0 0.00 0.01 0.01 82 1014.9
20260502032305 69 305 0.0 7.0 0.00 0.01 0.01 82 1014.7
20260502031801 69 66 0.0 7.0 0.00 0.01 0.01 81 1014.7
20260502031549 69 0 1.0 7.0 0.00 0.01 0.01 81 1014.6
20260502031301 69 79 1.0 7.0 0.00 0.01 0.01 82 1014.5
20260502030800 69 229 0.0 8.0 0.00 0.01 0.01 82 1014.2
20260502030303 69 236 1.0 8.0 0.00 0.01 0.01 82 1014.1
20260502030050 69 274 1.0 8.0 0.00 0.01 0.01 81 1014.4
20260502025802 70 170 1.0 5.0 0.00 0.01 0.01 82 1014.0
20260502025306 70 195 0.0 4.0 0.00 0.01 0.01 82 1013.9
20260502024802 70 209 0.0 4.0 0.00 0.01 0.01 82 1013.7
20260502024544 70 197 0.0 4.0 0.00 0.01 0.01 82 1013.9
20260502024302 70 318 0.0 4.0 0.00 0.01 0.01 82 1013.6
20260502023802 70 25 0.0 2.0 0.00 0.01 0.01 81 1013.3
20260502023303 70 25 0.0 2.0 0.00 0.01 0.01 81 1013.3
20260502023053 69 0 0.0 2.0 0.00 0.01 0.01 81 1013.5
20260502023028 70 7 0.0 2.0 0.00 0.01 0.01 81 1013.2
20260502022306 70 27 0.0 4.0 0.00 0.01 0.01 81 1013.1
20260502021802 70 150 0.0 4.0 0.00 0.01 0.01 81 1012.8
20260502021552 69 150 0.0 5.0 0.00 0.01 0.01 81 1012.9
20260502021303 70 286 0.0 4.0 0.00 0.01 0.01 81 1012.5
20260502020801 70 296 1.0 4.0 0.00 0.01 0.01 81 1012.6
20260502020301 70 120 1.0 4.0 0.00 0.01 0.01 82 1012.5
20260502020053 70 186 0.0 6.0 0.00 0.01 0.01 81 1012.6
20260502015801 70 152 1.0 6.0 0.00 0.01 0.01 82 1012.4
20260502015305 70 295 1.0 6.0 0.00 0.01 0.01 82 1012.2
20260502014801 70 342 0.0 6.0 0.00 0.01 0.01 82 1012.2
20260502014553 70 0 0.0 8.0 0.00 0.01 0.01 82 1012.4
20260502014301 70 287 0.0 3.0 0.00 0.01 0.01 83 1012.1
20260502013801 70 359 0.0 5.0 0.00 0.01 0.01 83 1012.0
20260502013303 70 196 0.0 5.0 0.00 0.01 0.01 83 1011.9
20260502013049 70 314 0.0 8.0 0.00 0.01 0.01 83 1012.1
20260502012803 70 13 0.0 7.0 0.00 0.01 0.01 83 1012.0
20260502012315 70 276 1.0 7.0 0.00 0.01 0.01 83 1011.7
20260502011803 70 203 0.0 4.0 0.00 0.01 0.01 83 1011.6
20260502011550 70 0 0.0 5.0 0.00 0.01 0.01 83 1011.9
20260502011521 70 167 0.0 6.0 0.00 0.01 0.01 84 1011.4
20260502010802 70 148 1.0 8.0 0.00 0.01 0.01 84 1011.2
20260502010302 70 108 1.0 8.0 0.00 0.01 0.01 85 1011.0
20260502010048 70 33 1.0 7.0 0.00 0.01 0.01 85 1011.3
20260502005802 70 211 1.0 6.0 0.00 0.01 0.01 85 1011.1
20260502005513 70 228 0.0 9.0 0.00 0.01 0.01 86 1010.9
20260502005501 70 291 0.0 6.0 0.00 0.01 0.01 86 1011.0
20260502004552 70 27 0.0 8.0 0.00 0.01 0.01 86 1011.2
20260502004302 71 210 0.0 9.0 0.00 0.01 0.01 86 1010.9
20260502003802 71 85 0.0 9.0 0.00 0.01 0.01 85 1010.8
20260502003303 71 18 1.0 9.0 0.00 0.01 0.01 85 1010.8
20260502003049 70 172 1.0 9.0 0.00 0.01 0.01 84 1011.1
20260502002803 71 166 2.0 8.0 0.00 0.01 0.01 84 1010.6
20260502002305 71 15 0.0 8.0 0.00 0.01 0.01 84 1010.5
20260502001801 71 63 1.0 6.0 0.00 0.01 0.01 83 1010.3
20260502001548 71 221 1.0 9.0 0.00 0.01 0.01 83 1010.6
20260502001518 71 1 1.0 7.0 0.00 0.01 0.01 83 1010.3
20260502000801 71 184 2.0 7.0 0.00 0.01 0.01 82 1010.2
20260502000303 72 273 2.0 7.0 0.00 0.01 0.01 82 1010.1
20260502000057 72 158 1.0 8.0 0.00 0.01 0.01 82 1010.4
20260501235803 72 86 1.0 6.0 0.00 0.01 0.01 82 1009.9
20260501235305 73 185 0.0 10.0 0.00 0.01 0.01 82 1009.8
20260501234802 73 80 1.0 10.0 0.00 0.01 0.01 82 1009.8
20260501234547 73 326 2.0 10.0 0.00 0.01 0.01 81 1010.0
20260501234302 73 258 1.0 7.0 0.00 0.01 0.01 81 1009.6
20260501233802 74 134 0.0 12.0 0.00 0.01 0.01 81 1009.5
20260501233301 74 255 4.0 12.0 0.00 0.01 0.01 80 1009.2
20260501233046 74 342 1.0 11.0 0.00 0.01 0.01 80 1009.7
20260501233023 74 267 2.0 8.0 0.00 0.01 0.01 81 1009.2
20260501232535 74 120 1.0 8.0 0.00 0.01 0.01 80 1009.1
20260501231801 75 217 2.0 10.0 0.00 0.01 0.01 80 1008.9
20260501231554 74 0 0.0 10.0 0.00 0.01 0.01 79 1009.1
20260501231301 75 222 3.0 10.0 0.00 0.01 0.01 80 1008.7
20260501230801 75 253 3.0 8.0 0.00 0.01 0.01 79 1008.8
20260501230302 75 334 1.0 8.0 0.00 0.01 0.01 79 1008.7
20260501230054 75 277 1.0 10.0 0.00 0.01 0.01 78 1008.8
20260501225803 76 292 3.0 8.0 0.00 0.01 0.01 79 1008.4
20260501225522 77 328 0.0 7.0 0.00 0.01 0.01 78 1008.4
20260501224802 77 82 2.0 10.0 0.00 0.01 0.01 78 1008.2
20260501224550 77 46 1.0 10.0 0.00 0.01 0.01 78 1008.5
20260501224302 77 183 2.0 10.0 0.00 0.01 0.01 78 1008.2
20260501223802 78 125 1.0 8.0 0.00 0.01 0.01 78 1008.0
20260501223302 78 221 0.0 7.0 0.00 0.01 0.01 79 1007.9
20260501223049 78 0 0.0 8.0 0.00 0.01 0.01 79 1008.2
20260501222802 78 144 2.0 7.0 0.00 0.01 0.01 79 1007.9
20260501222530 79 53 2.0 5.0 0.00 0.01 0.01 78 1007.6
20260501221803 80 277 0.0 6.0 0.00 0.01 0.01 78 1007.5
20260501221554 79 0 1.0 6.0 0.00 0.01 0.01 77 1007.7
20260501221302 80 60 1.0 6.0 0.00 0.01 0.01 77 1007.5
20260501220802 81 348 0.0 4.0 0.00 0.01 0.01 75 1007.3
20260501220302 81 134 0.0 2.0 0.00 0.01 0.01 75 1007.3
20260501220054 81 0 0.0 2.0 0.00 0.01 0.01 75 1007.5
20260501215803 81 101 0.0 2.0 0.00 0.01 0.01 75 1007.2
20260501215305 81 264 0.0 4.0 0.00 0.01 0.01 75 1007.1
20260501215025 81 102 0.0 4.0 0.00 0.01 0.01 75 1007.2
20260501214550 80 0 0.0 3.0 0.00 0.01 0.01 75 1007.4
20260501214524 81 243 0.0 1.0 0.00 0.01 0.01 75 1007.2
20260501213802 80 213 0.0 8.0 0.00 0.01 0.01 76 1007.2
20260501213301 80 356 3.0 10.0 0.00 0.01 0.01 76 1007.2
20260501213053 79 0 0.0 10.0 0.00 0.01 0.01 76 1007.5
20260501212803 79 330 3.0 10.0 0.00 0.01 0.01 76 1007.3
20260501212305 80 186 2.0 8.0 0.00 0.01 0.01 76 1007.4
20260501212245 79 152 0.0 7.0 0.00 0.01 0.01 77 1007.3
20260501211550 78 174 1.0 7.0 0.00 0.01 0.01 78 1007.5
20260501211302 79 317 0.0 7.0 0.00 0.01 0.01 79 1007.3
20260501210802 78 1 1.0 11.0 0.00 0.01 0.01 79 1007.4
20260501210302 78 192 3.0 11.0 0.00 0.01 0.01 78 1007.3
20260501210049 78 74 0.0 8.0 0.00 0.01 0.01 78 1007.5
20260501205802 78 277 0.0 10.0 0.00 0.01 0.01 79 1007.3
20260501205305 78 34 2.0 10.0 0.00 0.01 0.01 78 1007.4
20260501204802 78 26 3.0 9.0 0.00 0.01 0.01 79 1007.4
20260501204550 78 30 0.0 8.0 0.00 0.01 0.01 79 1007.6
20260501204302 78 342 1.0 9.0 0.00 0.01 0.01 79 1007.3
20260501204022 79 187 2.0 9.0 0.00 0.01 0.01 80 1007.3
20260501203301 79 257 1.0 9.0 0.00 0.01 0.01 79 1007.4
20260501203052 79 347 1.0 8.0 0.00 0.01 0.01 78 1007.7
20260501202801 79 279 3.0 9.0 0.00 0.01 0.01 78 1007.6
20260501202301 80 40 1.0 8.0 0.00 0.01 0.01 78 1007.5
20260501201800 80 112 2.0 15.0 0.00 0.01 0.01 79 1007.5
20260501201557 80 148 4.0 14.0 0.00 0.01 0.01 79 1007.8
20260501201301 80 259 3.0 15.0 0.00 0.01 0.01 79 1007.5
20260501200800 80 248 5.0 10.0 0.00 0.01 0.01 79 1007.5
20260501200747 81 88 1.0 10.0 0.00 0.01 0.01 79 1007.7
20260501200049 80 0 1.0 9.0 0.00 0.01 0.01 79 1008.0
20260501195801 81 172 4.0 9.0 0.00 0.01 0.01 79 1007.7
20260501195301 81 319 2.0 7.0 0.00 0.01 0.01 79 1007.7
20260501195022 81 328 1.0 9.0 0.00 0.01 0.01 79 1007.5
20260501194602 81 0 2.0 10.0 0.00 0.01 0.01 79 1007.7
20260501194301 81 229 2.0 10.0 0.00 0.01 0.01 81 1007.7
20260501193800 80 259 4.0 10.0 0.00 0.01 0.01 81 1007.8
20260501193301 80 198 1.0 9.0 0.00 0.01 0.01 81 1007.7
20260501193045 80 0 4.0 9.0 0.00 0.01 0.01 81 1008.0
20260501193024 80 141 2.0 7.0 0.00 0.01 0.01 81 1007.7
20260501192305 80 293 3.0 7.0 0.00 0.01 0.01 82 1007.6
20260501191801 79 165 0.0 9.0 0.00 0.01 0.01 83 1007.6
20260501191556 78 0 3.0 9.0 0.00 0.01 0.01 83 1007.8
20260501191300 78 203 5.0 9.0 0.00 0.01 0.01 84 1007.6
20260501190801 78 334 2.0 8.0 0.00 0.01 0.01 84 1007.8
20260501190301 78 356 1.0 8.0 0.01 0.01 0.01 86 1007.6
20260501190050 77 210 2.0 9.0 0.01 0.01 0.01 86 1007.7
20260501185803 77 8 3.0 8.0 0.01 0.00 0.01 89 1007.4
20260501185305 76 160 4.0 10.0 0.01 0.00 0.01 89 1007.6
20260501184803 75 236 1.0 10.0 0.01 0.00 0.01 91 1007.8
20260501184551 75 70 2.0 9.0 0.01 0.01 0.01 90 1008.2
20260501184303 75 250 4.0 7.0 0.01 0.00 0.01 91 1008.0
20260501183802 75 215 2.0 9.0 0.01 0.00 0.01 91 1008.1
20260501183300 75 34 2.0 10.0 0.01 0.00 0.01 91 1008.2
20260501183050 74 316 4.0 10.0 0.01 0.01 0.01 91 1008.5
20260501182801 75 103 3.0 10.0 0.01 0.00 0.01 91 1008.2
20260501182301 75 326 4.0 10.0 0.01 0.00 0.01 91 1008.3
20260501181801 75 293 4.0 9.0 0.01 0.00 0.01 91 1008.3
20260501181616 75 203 1.0 8.0 0.01 0.01 0.01 90 1008.5
20260501181301 75 17 1.0 9.0 0.01 0.00 0.01 91 1008.2
20260501181022 75 212 5.0 9.0 0.01 0.00 0.00 90 1008.3
20260501180301 76 261 5.0 10.0 0.00 0.00 0.00 88 1008.3
20260501180058 76 260 3.0 12.0 0.00 0.00 0.00 86 1008.7
20260501175801 77 15 6.0 10.0 0.00 0.00 0.00 85 1008.5
20260501175525 80 337 5.0 10.0 0.00 0.00 0.00 81 1008.4
20260501174803 84 199 4.0 10.0 0.00 0.00 0.00 74 1008.5
20260501174558 85 304 0.0 4.0 0.00 0.00 0.00 73 1008.6
20260501174302 85 126 0.0 5.0 0.00 0.00 0.00 73 1008.3
20260501173801 85 244 0.0 6.0 0.00 0.00 0.00 73 1008.2
20260501173522 85 307 0.0 6.0 0.00 0.00 0.00 74 1008.2
20260501173109 85 0 0.0 5.0 0.00 0.00 0.00 73 1008.5
20260501172801 85 51 0.0 5.0 0.00 0.00 0.00 74 1008.2
20260501172305 85 128 0.0 5.0 0.00 0.00 0.00 74 1008.4
20260501171803 85 134 0.0 7.0 0.00 0.00 0.00 74 1008.4
20260501171552 84 0 0.0 6.0 0.00 0.00 0.00 74 1008.7
20260501171523 85 359 1.0 7.0 0.00 0.00 0.00 74 1008.4